GW6995 Weather Reports


time (UTC)temp
C
wind
direction
speed
KPH
gust
KPH
rain 1hr
cm
rain 24hr
cm
rain mn
cm
humidity
%
barometer
mb
20260504160425 20 191 8.0 12.9 0.00 0.00 0.00 33 1012.5
20260504150848 20 128 11.3 14.5 0.00 0.00 0.00 32 1013.3
20260504150345 20 199 1.6 11.3 0.00 0.00 0.00 34 1013.5
20260504141315 18 163 0.0 4.8 0.00 0.00 0.00 37 1013.7
20260504140812 18 159 3.2 9.7 0.00 0.00 0.00 36 1013.8
20260504140307 17 237 1.6 9.7 0.00 0.00 0.00 40 1013.8
20260504130736 16 232 1.6 4.8 0.00 0.00 0.00 39 1014.6
20260504130232 16 90 9.7 14.5 0.00 0.00 0.00 38 1014.5
20260504120156 12 136 4.8 6.4 0.00 0.00 0.00 46 1014.7
20260504110623 8 143 1.6 1.6 0.00 0.00 0.00 58 1014.6
20260504110119 8 144 0.0 1.6 0.00 0.00 0.00 60 1014.7
20260504100545 6 135 0.0 0.0 0.00 0.00 0.00 66 1014.3
20260504081939 7 136 0.0 0.0 0.00 0.00 0.00 61 1014.1
20260504081436 7 136 0.0 0.0 0.00 0.00 0.00 60 1014.3
20260504080931 7 136 0.0 0.0 0.00 0.00 0.00 59 1014.1
20260504080428 7 136 0.0 0.0 0.00 0.00 0.00 59 1014.1
20260504070356 8 126 1.6 1.6 0.00 0.00 0.00 54 1013.6
20260504050743 5 20 0.0 0.0 0.00 0.00 0.00 79 1013.4
20260504050241 5 20 0.0 0.0 0.00 0.00 0.00 78 1013.5
20260504045739 5 20 0.0 0.0 0.00 0.00 0.00 79 1013.5
20260504045238 5 20 0.0 0.0 0.00 0.00 0.00 79 1013.5
20260504044737 5 20 0.0 0.0 0.00 0.00 0.00 78 1013.4
20260504044234 5 20 0.0 0.0 0.00 0.00 0.00 80 1013.6
20260504043731 5 20 0.0 0.0 0.00 0.00 0.00 78 1013.4
20260504043228 5 20 0.0 0.0 0.00 0.00 0.00 77 1013.4
20260504042726 5 20 0.0 0.0 0.00 0.00 0.00 79 1013.3
20260504042222 5 20 0.0 0.0 0.00 0.00 0.00 77 1013.3
20260504041718 5 20 0.0 0.0 0.00 0.00 0.00 77 1013.3
20260504041214 5 20 0.0 0.0 0.00 0.00 0.00 76 1013.0
20260504040710 5 20 0.0 0.0 0.00 0.00 0.00 76 1013.1
20260504040208 5 20 0.0 0.0 0.00 0.00 0.00 77 1013.0
20260504035704 5 20 0.0 0.0 0.00 0.00 0.00 77 1013.0
20260504035202 5 20 0.0 0.0 0.00 0.00 0.00 76 1013.1
20260504034659 5 20 0.0 0.0 0.00 0.00 0.00 75 1013.2
20260504034155 5 20 0.0 0.0 0.00 0.00 0.00 73 1013.1
20260504033653 5 20 0.0 0.0 0.00 0.00 0.00 72 1013.0
20260504033150 5 20 0.0 0.0 0.00 0.00 0.00 70 1013.0
20260504032647 6 20 0.0 0.0 0.00 0.00 0.00 70 1012.9
20260504032144 6 20 0.0 0.0 0.00 0.00 0.00 69 1013.0
20260504031641 6 20 0.0 0.0 0.00 0.00 0.00 68 1013.1
20260504031137 6 20 0.0 0.0 0.00 0.00 0.00 68 1013.1
20260504030634 6 20 0.0 0.0 0.00 0.00 0.00 67 1013.2
20260504030131 6 20 0.0 0.0 0.00 0.00 0.00 66 1013.1
20260504025628 6 20 0.0 0.0 0.00 0.00 0.00 66 1012.9
20260504025125 7 20 0.0 0.0 0.00 0.00 0.00 65 1013.0
20260504024622 7 20 0.0 0.0 0.00 0.00 0.00 64 1012.9
20260504024118 7 20 0.0 0.0 0.00 0.00 0.00 63 1013.0
20260504023615 6 20 0.0 0.0 0.00 0.00 0.00 63 1013.1
20260504023111 6 20 0.0 0.0 0.00 0.00 0.00 63 1012.9
20260504022608 6 20 0.0 0.0 0.00 0.00 0.00 62 1012.9
20260504022103 7 20 0.0 0.0 0.00 0.00 0.00 62 1013.1
20260504021602 7 20 0.0 0.0 0.00 0.00 0.00 60 1013.2
20260504021058 7 20 0.0 0.0 0.00 0.00 0.00 59 1013.0
20260504020555 7 20 0.0 0.0 0.00 0.00 0.00 58 1013.1
20260504020051 7 20 0.0 0.0 0.00 0.00 0.00 59 1013.1
20260504015548 7 20 0.0 0.0 0.00 0.00 0.00 57 1013.1
20260504015044 7 20 0.0 0.0 0.00 0.00 0.00 56 1013.0
20260504014540 7 20 0.0 0.0 0.00 0.00 0.00 56 1012.9
20260504014038 7 20 0.0 0.0 0.00 0.00 0.00 57 1012.9
20260504013535 8 20 0.0 0.0 0.00 0.00 0.00 57 1013.0
20260504013032 8 20 0.0 0.0 0.00 0.00 0.00 53 1012.9
20260504012529 8 20 0.0 0.0 0.00 0.00 0.00 51 1012.8
20260504012027 8 20 0.0 0.0 0.00 0.00 0.00 50 1012.7
20260504011524 9 20 0.0 0.0 0.00 0.00 0.00 49 1012.9
20260504011020 9 20 0.0 0.0 0.00 0.00 0.00 48 1012.6
20260504010515 9 20 0.0 0.0 0.00 0.00 0.00 49 1012.5
20260504010011 10 20 0.0 0.0 0.00 0.00 0.00 46 1012.6
20260504005509 10 20 0.0 0.0 0.00 0.00 0.00 44 1012.4
20260504005006 10 20 0.0 0.0 0.00 0.00 0.00 44 1012.4
20260504004504 11 20 0.0 0.0 0.00 0.00 0.00 42 1012.1
20260504004000 11 20 0.0 0.0 0.00 0.00 0.00 39 1012.5
20260504003456 11 20 0.0 1.6 0.00 0.00 0.00 37 1012.0
20260504002954 12 5 0.0 0.0 0.00 0.00 0.00 36 1012.0
20260504002450 12 5 0.0 0.0 0.00 0.00 0.00 35 1011.9
20260504001948 12 269 0.0 1.6 0.00 0.00 0.00 34 1011.8
20260504001445 13 239 1.6 1.6 0.00 0.00 0.00 34 1011.6
20260504000942 13 266 0.0 3.2 0.00 0.00 0.00 33 1011.8
20260504000439 13 309 0.0 1.6 0.00 0.00 0.00 31 1011.7
20260503235936 14 333 0.0 1.6 0.00 0.00 0.00 30 1011.7
20260503235433 14 336 4.8 11.3 0.00 0.00 0.00 29 1011.5
20260503234931 14 351 1.6 3.2 0.00 0.00 0.00 29 1011.6
20260503234428 14 232 1.6 1.6 0.00 0.00 0.00 30 1011.4
20260503233926 14 290 1.6 1.6 0.00 0.00 0.00 29 1011.4
20260503233422 14 263 1.6 4.8 0.00 0.00 0.00 28 1011.3
20260503232919 14 347 3.2 6.4 0.00 0.00 0.00 28 1011.2
20260503232416 15 356 3.2 9.7 0.00 0.00 0.00 27 1011.2
20260503231914 15 284 3.2 4.8 0.00 0.00 0.00 28 1011.2
20260503231411 15 156 1.6 3.2 0.00 0.00 0.00 27 1011.2
20260503230907 15 284 1.6 6.4 0.00 0.00 0.00 28 1011.4
20260503230404 15 207 1.6 9.7 0.00 0.00 0.00 27 1011.0
20260503225902 15 36 3.2 11.3 0.00 0.00 0.00 27 1011.2
20260503225357 15 276 1.6 1.6 0.00 0.00 0.00 27 1011.2
20260503224853 15 300 6.4 11.3 0.00 0.00 0.00 25 1011.1
20260503224351 16 125 3.2 4.8 0.00 0.00 0.00 26 1011.0
20260503223849 16 205 3.2 4.8 0.00 0.00 0.00 27 1010.9
20260503223346 16 293 6.4 6.4 0.00 0.00 0.00 25 1011.0
20260503222841 16 248 0.0 12.9 0.00 0.00 0.00 26 1011.1
20260503222340 16 274 3.2 3.2 0.00 0.00 0.00 26 1011.2
20260503221838 16 216 6.4 12.9 0.00 0.00 0.00 24 1011.1
20260503221337 16 326 8.0 11.3 0.00 0.00 0.00 24 1010.9
20260503220832 16 291 6.4 11.3 0.00 0.00 0.00 25 1011.0
20260503220329 16 300 4.8 16.1 0.00 0.00 0.00 25 1010.9
20260503215826 16 335 4.8 12.9 0.00 0.00 0.00 24 1011.0
20260503215323 16 230 3.2 9.7 0.00 0.00 0.00 24 1011.1
20260503214821 17 255 3.2 9.7 0.00 0.00 0.00 23 1011.1
20260503214318 16 63 1.6 4.8 0.00 0.00 0.00 24 1011.2
20260503213815 16 314 1.6 9.7 0.00 0.00 0.00 23 1010.9
20260503213313 16 208 1.6 9.7 0.00 0.00 0.00 24 1011.2
20260503212810 16 280 3.2 4.8 0.00 0.00 0.00 26 1011.2
20260503212308 16 63 3.2 11.3 0.00 0.00 0.00 26 1011.1
20260503211805 16 261 3.2 14.5 0.00 0.00 0.00 26 1011.2
20260503211301 16 35 12.9 17.7 0.00 0.00 0.00 23 1010.8
20260503210801 16 45 3.2 16.1 0.00 0.00 0.00 26 1010.9
20260503210259 16 282 0.0 6.4 0.00 0.00 0.00 28 1010.9
20260503205754 16 336 11.3 12.9 0.00 0.00 0.00 24 1010.9
20260503205251 16 177 4.8 9.7 0.00 0.00 0.00 30 1010.8
20260503204747 16 30 4.8 22.5 0.00 0.00 0.00 25 1010.8
20260503204245 17 327 6.4 14.5 0.00 0.00 0.00 23 1011.0
20260503203742 16 39 4.8 6.4 0.00 0.00 0.00 27 1010.7
20260503203239 16 27 6.4 11.3 0.00 0.00 0.00 26 1011.0
20260503202736 16 0 3.2 4.8 0.00 0.00 0.00 28 1011.0
20260503202234 16 329 3.2 16.1 0.00 0.00 0.00 27 1011.1
20260503201732 16 357 1.6 11.3 0.00 0.00 0.00 26 1011.1
20260503201229 16 42 1.6 6.4 0.00 0.00 0.00 31 1011.0
20260503200726 16 358 9.7 14.5 0.00 0.00 0.00 27 1011.0
20260503200222 15 281 4.8 4.8 0.00 0.00 0.00 28 1011.1
20260503195719 16 319 6.4 11.3 0.00 0.00 0.00 28 1011.3
20260503195216 16 80 8.0 14.5 0.00 0.00 0.00 27 1011.2
20260503194713 16 196 4.8 11.3 0.00 0.00 0.00 25 1011.4
20260503194209 15 275 6.4 6.4 0.00 0.00 0.00 29 1011.3
20260503193705 15 34 3.2 11.3 0.00 0.00 0.00 28 1011.2
20260503193201 15 316 14.5 20.9 0.00 0.00 0.00 27 1011.4
20260503192657 16 347 3.2 22.5 0.00 0.00 0.00 29 1011.3
20260503192152 15 21 4.8 6.4 0.00 0.00 0.00 28 1011.6
20260503191649 16 314 3.2 9.7 0.00 0.00 0.00 29 1011.5
20260503191147 16 312 4.8 11.3 0.00 0.00 0.00 28 1011.6
20260503190643 16 89 3.2 12.9 0.00 0.00 0.00 30 1011.6
20260503190140 15 297 3.2 3.2 0.00 0.00 0.00 30 1011.8
20260503185637 15 93 6.4 11.3 0.00 0.00 0.00 29 1011.5
20260503185132 15 311 1.6 9.7 0.00 0.00 0.00 27 1011.8
20260503184627 14 9 1.6 12.9 0.00 0.00 0.00 31 1011.6
20260503184124 15 317 4.8 9.7 0.00 0.00 0.00 32 1011.7
20260503183621 15 267 6.4 17.7 0.00 0.00 0.00 29 1011.9
20260503183118 15 14 4.8 11.3 0.00 0.00 0.00 29 1012.0
20260503182616 14 53 1.6 9.7 0.00 0.00 0.00 32 1011.8
20260503182114 15 189 3.2 12.9 0.00 0.00 0.00 30 1011.9
20260503181611 14 321 4.8 12.9 0.00 0.00 0.00 34 1011.9
20260503181108 14 302 6.4 12.9 0.00 0.00 0.00 31 1012.1
20260503180605 15 328 8.0 16.1 0.00 0.00 0.00 29 1012.0
20260503175559 13 66 3.2 9.7 0.00 0.00 0.00 34 1012.3
20260503175056 12 124 3.2 6.4 0.00 0.00 0.00 37 1012.0
20260503174553 12 131 3.2 9.7 0.00 0.00 0.00 33 1012.3
20260503174049 13 298 4.8 12.9 0.00 0.00 0.00 34 1012.4
20260503173544 13 319 3.2 6.4 0.00 0.00 0.00 39 1012.2
20260503173041 12 101 1.6 6.4 0.00 0.00 0.00 37 1012.5
20260503172539 12 71 6.4 17.7 0.00 0.00 0.00 34 1012.0
20260503172036 13 295 3.2 9.7 0.00 0.00 0.00 34 1012.1
20260503171532 13 328 3.2 11.3 0.00 0.00 0.00 38 1012.3
20260503171030 13 336 4.8 6.4 0.00 0.00 0.00 35 1012.4
20260503170526 13 85 3.2 11.3 0.00 0.00 0.00 34 1012.2